Reno, NV

5:54 AM PST on December 09, 2019 (GMT -0800)
Reno-Tahoe International

Weather History for KRNO - November, 2019

Change the Weather History Date:

Friday, November 22, 2019

  Actual Average Record
Temperature  
Mean Temperature 43 °F 40 °F  
Max Temperature 54 °F 52 °F 69 °F (1915)
Min Temperature 32 °F 29 °F 7 °F (1975)
Degree Days  
Heating Degree Days 22 25  
Month to date heating degree days 327 460  
Since 1 July heating degree days 884 896  
Cooling Degree Days 0 0  
Month to date cooling degree days 0 0  
Year to date cooling degree days 1107 839  
Moisture  
Dew Point 31 °F    
Average Humidity 67    
Maximum Humidity 89    
Minimum Humidity 41    
Precipitation  
Precipitation 0.00 in 0.03 in 0.29 in (1982)
Month to date precipitation 0.12 0.58  
Year to date precipitation 9.17 6.13  
Snow  
Snow 0.00 in 0.10 in 3.30 in (1982)
Month to date snowfall 0.0 2.1  
Since 1 July snowfall T 2.5  
Since 1 September snowfall T 2.5  
Snow Depth 0.00 in    
Sea Level Pressure  
Sea Level Pressure 30.19 in    
Wind  
Wind Speed 2 mph ()    
Max Wind Speed 10 mph    
Max Gust Speed 13 mph    
Visibility 10.0 miles    
Events      
T = Trace of Precipitation, MM = Missing Value Source: Averaged Metar Reports

Daily Weather History Graph

Daily Weather History Graph

Search for Another Location

Airport or City:

Astronomy

Nov. 22, 2019 Rise Set
Actual Time 6:50 AM PST 4:39 PM PST
Civil Twilight 6:21 AM PST 5:08 PM PST
Nautical Twilight 5:48 AM PST 5:41 PM PST
Astronomical Twilight 5:16 AM PST 6:13 PM PST
Moon 2:04 AM PST (11/22) 2:41 PM PST (11/22)
Length of Visible Light 10h 47m
Length of Day
9h 48m
Waning Crescent, 18% of the Moon is Illuminated
Nov 22
Waning Crescent
Nov 26
New
Dec 3
First Quarter
Dec 11
Full
Dec 18
Last Quarter

Hourly Weather History & Observations

Time (PST) Temp. Windchill Dew Point Humidity Pressure Visibility Wind Dir Wind Speed Gust Speed Precip Events Conditions
12:55 AM 39.9 °F - 33.1 °F 77% 30.06 in 10.0 mi Calm Calm - N/A   Partly Cloudy
1:55 AM 37.9 °F - 32.0 °F 79% 30.08 in 10.0 mi Calm Calm - N/A   Scattered Clouds
2:55 AM 37.0 °F - 30.9 °F 79% 30.09 in 10.0 mi Calm Calm - N/A   Scattered Clouds
3:55 AM 36.0 °F 33.3 °F 30.0 °F 79% 30.11 in 10.0 mi West 3.5 mph - N/A   Partly Cloudy
4:55 AM 35.1 °F - 30.0 °F 82% 30.14 in 10.0 mi Calm Calm - N/A   Scattered Clouds
5:55 AM 33.1 °F - 28.9 °F 85% 30.17 in 10.0 mi Calm Calm - N/A   Scattered Clouds
6:55 AM 33.1 °F - 28.0 °F 82% 30.19 in 10.0 mi Calm Calm - N/A   Partly Cloudy
7:55 AM 34.0 °F - 30.0 °F 85% 30.21 in 10.0 mi Calm Calm - N/A   Partly Cloudy
8:55 AM 39.0 °F - 30.9 °F 73% 30.21 in 10.0 mi Calm Calm - N/A   Partly Cloudy
9:55 AM 44.1 °F - 32.0 °F 63% 30.20 in 10.0 mi Calm Calm - N/A   Partly Cloudy
11:55 AM 52.0 °F - 32.0 °F 47% 30.16 in 10.0 mi Calm Calm - N/A   Partly Cloudy
12:55 PM 53.1 °F - 33.1 °F 47% 30.15 in 10.0 mi SSE 3.5 mph - N/A   Scattered Clouds
1:55 PM 53.1 °F - 30.9 °F 43% 30.14 in 10.0 mi ESE 6.9 mph - N/A   Scattered Clouds
2:55 PM 53.1 °F - 30.9 °F 43% 30.15 in 10.0 mi East 6.9 mph - N/A   Scattered Clouds
3:55 PM 52.0 °F - 30.9 °F 45% 30.18 in 10.0 mi Calm Calm - N/A   Scattered Clouds
4:55 PM 48.9 °F - 32.0 °F 52% 30.19 in 10.0 mi East 9.2 mph - N/A   Scattered Clouds
5:55 PM 46.0 °F 44.8 °F 32.0 °F 58% 30.22 in 10.0 mi SSE 3.5 mph - N/A   Partly Cloudy
6:55 PM 44.1 °F 41.5 °F 32.0 °F 63% 30.24 in 10.0 mi South 4.6 mph - N/A   Clear
7:55 PM 41.0 °F 39.0 °F 32.0 °F 70% 30.26 in 10.0 mi SSW 3.5 mph - N/A   Clear
8:55 PM 39.9 °F 36.7 °F 30.9 °F 70% 30.27 in 10.0 mi SSW 4.6 mph - N/A   Partly Cloudy
9:55 PM 39.0 °F 35.7 °F 30.0 °F 70% 30.27 in 10.0 mi West 4.6 mph - N/A   Partly Cloudy
10:55 PM 36.0 °F 33.3 °F 30.0 °F 79% 30.28 in 10.0 mi WNW 3.5 mph - N/A   Clear
11:55 PM 36.0 °F - 28.9 °F 76% 30.29 in 10.0 mi Calm Calm - N/A   Scattered Clouds